Theta_e
302 302 301 301 301 300 299 299 300 300 300 298 298 300 299 299 295 306 310 313 312 304 297 300 298 296 299 304 302 303 300 300 301 299 300 297 301 298 298 297 297 298 296 296 295 296 291 294 292 294 295 296 297 299 298 300 298 298 294 297 297 294 287 285 286 290 293 295 297 298 298 296 293 293 294 292 288 290 287 286 286 283 284 283 282 279 284
302 301 300 300 300 299 299 299 299 300 299 297 297 298 298 300 301 302 309 313 311 301 290 291 294 297 301 300 300 304 301 300 297 298 299 298 297 296 296 298 299 296 299 296 293 296 287 293 294 292 296 293 299 299 298 300 297 297 294 291 295 287 288 288 282 282 284 288 292 292 294 293 291 290 292 293 293 293 291 289 288 280 283 283 281 275 282
301 300 300 299 300 299 299 299 298 299 299 299 297 297 301 300 302 301 303 308 305 296 299 296 295 296 295 296 295 297 299 301 301 299 297 300 299 297 296 297 298 297 298 296 296 295 293 288 295 295 295 294 299 298 299 298 296 298 297 294 296 289 286 285 278 276 274 275 277 281 283 285 289 291 290 291 290 290 287 282 284 280 283 285 281 280 287
301 301 300 300 300 299 299 298 298 298 299 298 297 299 299 295 289 298 298 302 300 301 303 300 298 295 295 293 295 297 295 298 300 300 298 300 299 298 298 297 296 295 294 292 292 292 293 292 289 291 291 294 296 296 296 296 297 295 293 290 295 287 287 286 283 280 279 281 284 289 289 286 282 286 288 289 291 290 289 287 283 279 282 282 283 284 285
301 301 301 300 300 299 299 298 298 298 298 298 296 297 298 296 290 293 290 298 297 296 299 298 299 294 298 290 295 293 294 296 296 301 293 299 297 297 296 295 293 292 293 290 291 292 291 294 292 291 291 294 294 297 297 295 292 291 292 293 291 286 284 285 286 285 285 286 286 288 288 284 284 284 284 287 287 287 285 283 280 286 282 276 284 286 283
301 301 301 301 301 300 299 299 298 297 298 298 296 292 295 287 291 297 298 294 289 290 291 296 296 298 297 293 296 293 292 293 290 296 298 298 299 292 294 295 294 293 291 291 286 289 289 289 287 291 291 291 293 292 296 293 292 291 293 296 289 284 280 284 284 283 285 286 285 286 286 286 285 285 285 284 286 286 283 283 285 285 280 277 283 285 283
301 301 302 302 301 300 299 299 298 298 298 299 294 291 294 291 292 293 296 291 295 295 295 297 296 295 296 293 294 291 291 289 292 292 292 294 293 295 286 289 292 293 293 291 287 288 283 284 289 288 287 288 288 287 289 292 291 292 290 291 291 286 282 284 285 283 284 285 286 287 285 284 285 284 285 285 285 284 285 284 285 285 283 284 284 284 284
301 302 302 302 301 301 300 299 298 300 298 297 292 292 290 286 288 287 292 293 290 291 294 295 295 291 294 289 292 293 290 289 291 293 292 287 290 296 290 290 293 292 290 292 288 289 290 288 285 288 287 286 288 286 287 287 289 289 286 289 290 286 280 285 283 280 280 283 284 284 284 284 282 284 285 285 285 285 285 285 285 285 283 284 284 283 282
302 302 302 302 301 301 300 300 299 300 300 293 291 290 293 292 292 294 290 287 288 288 291 292 291 289 290 289 291 292 291 289 291 290 294 292 288 290 289 291 287 286 287 290 290 293 288 287 287 288 288 284 289 285 285 287 283 286 285 287 286 286 281 285 282 278 277 282 282 283 282 281 280 279 281 282 283 281 283 282 285 283 281 282 282 280 280
302 301 301 301 301 301 301 300 300 300 299 294 293 288 295 292 294 294 292 286 290 286 290 290 290 285 290 291 290 290 290 292 291 287 292 290 293 293 292 291 290 288 287 287 289 290 288 288 289 290 289 289 289 290 289 289 286 284 284 287 283 284 282 279 279 276 275 280 281 279 278 277 274 276 280 282 283 284 284 285 285 284 284 280 278 279 283
302 302 301 301 301 301 301 301 300 300 298 292 291 290 292 290 290 291 290 285 288 287 287 286 287 288 291 292 290 291 290 291 292 286 285 288 288 290 292 290 288 286 286 289 292 292 291 290 290 290 289 288 287 288 288 288 288 286 284 283 283 283 281 279 281 274 275 279 279 279 275 269 270 282 285 284 281 282 280 280 282 284 283 281 281 280 281
302 302 301 301 301 301 301 301 300 301 299 297 296 292 294 294 293 292 287 282 283 288 286 284 287 288 287 290 290 289 288 288 289 291 287 288 288 288 288 287 288 283 290 292 292 291 291 291 289 288 288 287 287 287 287 285 286 288 287 283 281 280 280 279 280 275 273 277 277 272 267 269 281 284 285 285 284 283 281 282 282 283 283 284 283 284 282
302 302 302 301 301 301 301 301 301 300 300 299 296 291 295 297 292 288 287 284 281 286 283 284 287 287 288 288 288 288 288 287 287 288 289 288 286 285 287 287 286 287 292 290 290 288 284 281 283 283 283 285 285 285 284 284 284 286 286 287 283 279 279 279 277 277 277 274 272 266 266 278 279 283 283 285 285 283 282 280 283 284 284 284 282 284 283
302 302 301 301 301 301 300 301 301 301 301 300 295 295 295 294 289 288 287 283 281 286 287 285 285 285 285 286 287 285 285 285 285 285 284 287 285 285 286 287 289 292 291 291 286 284 279 280 275 276 276 279 278 277 281 283 284 284 284 285 285 282 280 279 274 278 270 272 272 271 277 276 278 279 280 281 279 280 279 274 277 284 282 282 281 281 280
302 301 301 301 301 301 301 301 301 301 301 301 298 296 295 295 293 290 290 287 280 285 286 279 283 284 285 285 286 283 283 283 282 282 284 286 283 286 286 289 290 290 290 285 281 282 278 277 271 272 272 272 267 269 278 274 281 284 284 284 285 284 278 279 275 273 278 272 270 271 270 267 273 279 280 283 282 282 281 279 275 281 278 282 280 278 278
303 302 302 302 301 301 301 301 301 301 301 301 298 296 296 296 295 293 290 286 282 278 282 286 287 286 284 284 285 283 281 282 282 281 280 280 282 284 285 287 288 289 287 285 283 279 278 274 270 271 268 268 272 268 268 275 272 279 280 280 280 282 283 280 277 273 274 272 269 268 267 269 278 275 279 281 281 282 282 278 272 278 278 281 280 278 278
303 303 302 302 302 302 302 302 302 301 301 301 297 296 294 298 295 291 288 286 285 279 288 288 288 287 284 282 284 282 283 280 282 278 277 279 281 282 282 284 286 286 285 282 280 277 274 273 273 273 272 271 266 268 272 271 269 271 278 279 277 276 277 278 274 272 273 271 269 267 272 271 277 278 281 283 284 283 278 267 268 278 279 279 279 277 278
302 302 302 302 302 302 302 302 302 302 301 302 298 296 295 298 297 293 289 286 282 282 287 288 286 283 282 283 281 284 285 283 283 283 280 279 278 280 280 282 280 286 287 279 278 276 274 273 270 270 269 276 273 274 266 273 265 270 271 274 273 274 274 276 271 272 272 273 270 272 272 278 279 279 282 283 284 280 269 265 273 277 279 278 278 278 278
301 302 301 302 302 301 302 302 302 302 302 301 300 298 296 298 297 295 290 286 285 280 288 290 291 287 289 291 286 287 285 284 284 280 279 278 279 282 281 282 284 276 283 276 278 275 273 272 276 273 271 273 274 268 273 270 270 275 275 271 271 271 272 273 274 271 270 271 269 269 272 278 281 281 282 283 278 268 268 276 277 278 278 280 280 279 280
301 301 301 301 301 301 301 301 302 302 302 301 299 294 296 298 298 296 290 285 286 284 288 288 288 286 290 286 284 283 284 284 284 281 280 276 281 281 280 275 282 280 279 280 273 277 274 271 273 275 272 272 274 276 271 272 276 272 273 275 272 272 270 269 270 272 273 272 268 267 263 275 279 279 278 281 273 274 279 278 279 281 280 280 281 281 280
301 301 301 301 301 301 301 301 301 301 301 301 300 296 294 298 298 297 296 292 287 283 284 292 291 289 290 288 289 289 286 282 284 281 283 282 283 281 273 273 278 277 275 277 270 273 275 272 274 273 275 274 274 273 268 270 271 278 276 273 273 278 270 271 272 276 268 268 266 267 274 278 282 279 274 279 280 283 283 281 279 282 282 281 280 281 281
301 300 301 301 301 301 301 301 301 301 301 301 300 297 292 296 297 297 297 294 288 285 286 293 293 291 292 293 292 292 290 289 290 290 285 282 284 282 281 281 280 279 279 281 276 274 276 275 276 273 271 273 277 272 272 270 268 272 272 275 268 278 273 275 271 275 273 270 273 278 281 281 283 283 282 282 284 283 283 282 281 280 281 282 281 281 281
300 301 301 301 301 301 301 301 301 301 301 301 300 296 292 295 295 297 296 289 291 291 293 291 293 292 294 294 295 295 294 294 293 292 290 285 282 284 282 281 279 285 281 284 278 278 278 276 272 277 274 276 273 272 271 273 270 273 271 278 276 280 280 281 278 275 279 280 280 281 280 281 281 283 284 282 283 284 284 282 281 282 282 283 281 281 281
301 301 301 301 301 301 301 301 301 301 301 302 301 296 294 296 296 294 291 290 286 284 287 289 286 283 285 287 292 294 294 293 293 293 294 291 281 282 285 285 286 283 280 283 286 281 280 278 276 278 272 276 276 272 270 268 271 274 273 273 276 279 280 277 274 277 274 269 279 278 279 280 281 281 283 284 284 284 283 282 282 282 283 282 283 282 282
300 300 301 301 301 300 301 301 301 300 301 301 301 299 297 295 296 293 288 282 283 282 278 283 284 288 292 294 294 293 293 295 295 293 293 291 288 283 281 286 288 284 281 284 286 281 280 274 276 275 271 277 278 271 277 273 272 278 271 274 275 274 281 276 276 275 273 273 277 279 281 281 282 282 281 281 282 283 283 283 283 283 283 283 282 282 280
299 300 301 301 299 299 300 301 301 301 302 301 299 296 293 293 297 295 291 291 289 286 279 279 283 293 293 291 289 292 296 295 293 293 292 292 292 290 288 289 288 289 287 287 285 280 279 278 278 277 274 274 282 275 274 277 276 279 275 274 279 278 280 273 276 274 276 278 279 279 280 280 280 282 282 283 283 282 283 283 283 283 282 282 281 280 280
299 299 300 300 300 300 300 300 300 300 301 300 298 297 295 295 298 294 290 289 284 279 282 278 284 284 289 288 292 294 295 294 293 292 291 292 291 291 289 287 285 286 284 283 284 282 280 278 277 274 277 276 281 278 278 276 277 275 274 278 281 278 274 278 276 272 272 273 275 279 274 274 278 281 282 282 283 283 282 282 282 282 281 281 279 278 277
299 300 300 300 300 300 300 300 299 300 301 301 300 296 295 293 295 296 296 293 287 281 281 280 282 284 289 285 292 293 294 294 293 291 290 290 291 290 288 286 285 284 283 281 277 278 277 275 274 279 280 280 277 275 280 279 279 276 275 277 280 277 277 277 274 273 272 277 280 281 280 279 280 281 283 283 283 283 281 281 281 282 281 280 279 277 275
298 299 299 299 299 299 299 300 300 300 300 299 293 289 288 293 296 297 296 295 292 287 285 283 283 281 278 283 291 290 293 293 292 291 290 289 289 289 288 287 285 284 283 282 280 279 278 278 281 278 277 282 278 275 277 272 272 271 275 279 280 281 282 280 279 279 279 281 281 282 280 278 280 282 283 283 283 282 281 281 281 280 278 277 277 277 276
298 298 299 299 299 299 299 299 300 299 299 296 288 286 283 285 292 293 297 296 294 289 282 280 277 280 286 283 282 287 289 291 291 290 289 288 288 288 288 286 285 286 283 281 280 276 279 279 280 282 283 285 278 277 273 274 272 274 279 280 281 282 282 282 283 280 278 282 282 282 282 282 283 283 282 281 280 280 279 280 279 277 274 274 274 273 271
298 298 299 299 299 299 299 298 299 300 299 291 287 282 279 278 287 294 296 295 296 289 284 284 279 285 281 285 285 285 287 289 288 288 288 288 288 288 288 287 286 286 281 281 280 280 281 277 279 280 283 283 281 276 273 273 271 274 278 280 281 281 281 281 283 283 283 282 283 283 283 282 283 283 281 281 278 277 276 274 272 273 272 271 270 270 269
298 297 297 298 299 299 299 299 300 299 296 288 284 285 285 287 295 294 295 296 294 286 282 278 278 278 277 282 283 285 288 288 288 288 287 288 285 288 287 287 284 286 284 280 280 280 278 280 279 279 279 282 282 276 275 273 271 273 279 280 281 282 282 282 282 283 283 283 282 281 280 280 282 280 279 277 275 274 274 272 270 269 268 268 268 267 266
298 298 298 297 297 298 298 299 299 298 293 295 296 297 292 292 295 296 296 293 290 285 286 281 275 278 276 277 280 279 286 285 284 285 282 287 284 286 283 286 285 283 286 281 278 276 281 280 280 277 280 284 278 276 273 272 274 278 280 281 281 282 282 283 283 283 283 283 283 278 277 279 279 275 273 272 272 271 270 268 267 266 265 264 264 265 264
298 298 297 297 297 297 298 298 298 297 297 292 286 287 291 292 296 297 294 289 286 286 285 279 275 275 274 282 275 281 286 281 280 283 278 285 286 284 281 282 283 279 282 278 280 279 281 281 278 278 281 278 280 275 271 274 278 279 280 281 282 282 282 282 282 282 282 283 283 281 278 275 273 273 272 270 269 268 267 266 265 263 263 263 265 266 265
297 297 297 297 296 296 298 297 293 291 287 287 286 292 294 294 293 297 292 288 281 279 279 279 280 274 274 274 273 278 285 283 278 282 278 282 286 281 282 277 280 276 277 284 278 279 277 278 281 277 274 279 276 272 274 276 278 279 280 280 281 281 281 280 280 282 282 277 274 274 272 273 272 271 271 271 268 267 265 264 264 264 264 265 265 264 263
295 296 296 297 296 295 293 292 290 288 286 286 287 294 296 295 294 293 289 287 285 280 278 278 279 274 276 271 272 278 285 280 283 282 281 281 279 283 282 279 274 278 282 279 275 278 276 281 279 273 278 274 272 275 277 279 279 279 280 280 281 281 280 280 281 279 271 269 270 269 269 269 271 272 271 269 267 265 265 264 263 263 263 264 264 263 262
294 296 297 294 292 288 285 286 291 289 288 293 295 297 297 295 290 290 287 285 284 284 280 279 276 276 277 276 279 279 281 274 282 278 279 276 276 280 278 277 273 279 277 276 276 275 278 284 277 273 273 272 275 279 280 280 280 280 280 281 282 283 282 282 278 273 267 265 264 267 267 267 267 268 268 267 266 265 263 263 263 261 260 261 261 260 259
295 294 292 288 284 281 282 285 287 292 296 295 295 290 288 288 281 283 282 279 283 283 278 282 276 279 281 278 272 281 280 277 281 275 276 279 276 273 278 276 276 277 270 273 275 281 279 277 274 273 274 278 280 280 281 281 282 282 282 282 282 282 281 276 272 271 267 267 267 265 262 262 263 265 266 265 264 262 263 263 261 260 259 259 258 258 257
293 289 287 286 283 281 282 286 295 296 293 293 291 284 281 284 280 277 276 279 280 275 280 278 276 280 278 276 277 283 280 278 275 276 272 279 275 271 275 269 276 276 272 272 275 282 272 274 274 274 272 276 277 279 281 282 282 282 281 275 273 271 270 270 272 272 272 273 271 267 267 269 267 265 265 264 263 263 261 260 259 259 258 257 257 256 256
287 283 283 283 281 285 291 294 297 293 289 284 285 283 276 280 276 272 280 273 274 276 279 273 280 280 280 277 276 275 283 278 273 273 274 276 281 271 276 273 276 273 268 269 273 279 272 269 272 272 271 275 277 280 281 281 281 280 269 266 267 267 267 266 264 264 264 262 262 261 260 259 261 263 263 263 261 259 258 257 257 257 256 255 256 255 255
285 284 282 281 285 288 289 292 290 287 284 280 277 277 276 272 277 276 274 272 273 273 280 278 280 278 281 281 280 275 282 282 279 281 278 272 280 277 272 268 278 270 269 269 275 274 273 269 270 270 272 276 278 279 280 280 279 267 262 263 262 263 262 262 261 261 260 259 257 256 255 255 255 255 256 256 257 256 256 255 255 254 254 254 254 254 256
287 285 286 287 285 285 286 284 282 280 279 280 276 270 274 274 273 271 273 270 272 273 273 277 275 276 277 280 279 281 279 280 279 279 276 271 278 273 272 272 275 268 266 273 275 272 271 266 268 268 274 276 278 277 274 273 263 261 260 259 260 260 260 259 258 257 258 258 257 256 255 255 254 254 254 253 254 254 254 254 253 254 253 253 254 254 254
290 286 286 284 283 282 284 277 280 279 272 271 269 268 271 266 269 270 270 273 275 274 275 280 279 283 281 283 278 280 278 280 276 275 274 272 278 275 271 269 268 264 269 273 272 269 266 266 267 271 275 277 275 272 266 264 261 260 259 259 259 260 259 258 256 256 256 255 255 254 253 253 253 253 252 252 252 251 252 252 252 252 252 252 252 253 253
287 285 282 280 278 279 281 269 279 272 271 271 269 266 268 267 270 272 269 271 272 273 276 274 276 277 274 281 277 275 276 278 279 274 273 276 272 268 269 265 267 271 273 269 268 264 267 269 271 274 276 267 257 260 260 259 259 258 257 257 258 258 258 257 256 255 255 255 254 253 253 252 252 252 251 251 251 250 251 250 251 252 252 252 251 252 252
280 277 277 276 273 277 274 268 278 272 268 269 274 272 271 268 271 272 272 275 275 274 278 278 278 277 275 274 276 277 278 272 280 272 269 272 269 271 267 267 270 270 268 266 266 265 266 265 271 273 273 270 264 258 258 258 258 257 256 256 257 257 257 257 256 256 255 254 253 252 252 252 252 252 251 251 251 251 250 250 251 252 252 251 251 251 252
278 275 274 270 268 274 272 269 270 266 273 275 273 274 275 275 275 274 276 277 276 277 276 277 278 278 274 276 274 273 274 274 271 271 273 272 267 266 270 271 271 265 265 266 263 263 266 270 273 274 275 272 263 257 256 256 256 256 255 254 255 255 255 254 253 254 254 253 253 253 252 252 252 252 252 252 252 251 251 251 252 251 251 251 250 250 251
278 278 276 274 270 273 274 269 269 271 274 276 277 278 277 278 277 277 274 275 278 279 279 279 278 278 274 271 270 271 270 273 270 272 272 267 267 269 272 267 263 265 263 262 263 265 269 272 275 269 261 257 255 255 254 254 254 255 255 254 253 253 253 253 253 254 254 254 253 253 253 252 252 251 251 251 251 252 252 252 252 252 251 250 250 250 250
273 276 275 268 266 271 268 271 273 269 267 270 270 268 268 270 273 272 270 271 277 278 276 276 273 273 272 275 274 271 270 271 270 270 271 269 270 264 265 264 263 266 267 266 267 271 272 274 269 260 258 257 254 253 253 253 253 253 253 253 253 253 253 252 252 252 252 251 251 251 251 251 250 250 250 250 250 251 251 251 250 250 250 250 249 249 249
277 274 271 270 267 266 268 270 270 272 271 266 266 268 270 272 275 275 270 269 275 276 277 276 274 273 269 273 270 270 267 272 266 267 270 267 265 263 263 260 263 262 266 269 271 273 273 263 256 255 253 254 253 253 253 253 253 252 252 252 252 252 252 251 251 251 250 250 250 249 250 251 251 250 250 250 250 251 252 251 250 250 249 249 249 249 249
272 269 266 264 265 267 269 269 269 271 269 267 268 269 271 272 274 269 269 271 274 275 276 276 277 273 270 269 266 269 268 271 269 270 266 265 265 266 265 260 263 264 268 271 272 267 257 255 254 252 252 252 252 252 252 252 252 252 252 252 251 251 251 250 250 250 250 250 250 250 250 249 250 251 250 250 251 251 250 249 249 248 248 248 248 248 248
271 271 269 269 268 269 269 266 269 269 269 270 270 270 270 270 271 268 269 271 274 274 273 271 272 270 268 267 267 264 265 271 267 267 266 266 267 264 265 264 268 270 269 261 259 258 257 256 255 254 251 252 252 252 252 252 252 252 251 251 251 250 250 249 249 249 250 250 250 249 249 248 249 250 250 249 249 248 248 247 248 248 248 248 248 248 248
269 267 267 266 265 265 268 269 270 270 270 271 271 269 269 269 267 267 269 271 274 271 270 270 268 267 266 264 267 269 270 268 266 267 264 267 268 265 267 269 271 266 262 261 258 255 255 255 254 252 253 252 252 251 251 250 249 248 247 247 248 249 250 250 250 250 249 248 247 247 247 247 247 246 247 246 245 245 245 247 251 250 250 251 251 251 250
Wind_Speed
9 8 6 6 5 4 2 2 4 7 4 3 3 1 3 6 3 4 3 9 13 10 10 8 9 10 8 2 1 3 0 4 3 6 4 3 2 2 5 8 7 9 10 9 10 11 7 7 11 10 9 12 8 4 2 4 3 3 2 5 1 6 2 4 10 10 13 17 16 17 8 6 7 10 7 5 11 11 12 11 7 8 11 12 10 13 5
9 7 6 6 5 4 4 2 4 5 6 1 1 3 4 4 2 2 2 6 9 12 14 13 14 10 5 6 10 7 7 7 5 7 8 6 5 8 7 7 12 10 8 7 9 7 6 5 10 9 8 7 7 3 3 0 1 2 1 3 1 4 3 2 4 6 7 9 8 8 3 1 6 8 9 9 11 12 11 6 2 5 6 15 14 17 9
8 6 6 6 6 4 2 2 3 3 4 2 2 4 4 5 1 0 1 3 8 15 9 10 10 14 16 12 14 13 7 6 11 9 9 8 8 4 6 9 4 8 7 10 10 8 11 6 4 6 4 4 5 4 4 5 1 5 6 7 3 2 3 2 5 6 8 8 8 6 3 1 2 3 6 3 8 11 9 10 10 15 9 15 12 13 10
10 9 8 8 6 4 3 1 1 2 3 5 4 4 5 7 5 6 1 3 4 5 4 4 9 11 13 15 14 15 13 7 4 8 10 11 10 11 8 2 1 8 8 8 9 10 7 9 2 3 4 3 2 3 6 5 4 3 7 2 0 1 2 5 8 10 10 11 10 13 13 10 9 8 6 9 10 10 9 10 12 14 11 12 9 11 12
8 9 9 8 7 6 5 2 1 1 2 2 2 3 3 3 5 7 7 3 7 5 5 7 10 10 12 8 5 15 16 11 4 8 5 8 11 9 11 9 8 7 10 11 11 13 12 10 10 11 12 10 5 5 4 5 6 5 2 4 1 2 7 10 13 14 16 17 19 18 16 16 16 15 16 16 16 10 12 12 18 12 12 16 11 19 17
10 11 11 10 9 7 6 6 3 1 1 5 4 4 4 5 3 4 1 4 6 10 8 8 9 13 12 11 8 12 12 12 10 5 3 1 2 6 4 11 15 14 13 10 9 10 12 12 13 12 11 11 7 7 4 3 3 3 1 3 2 4 8 10 14 14 17 18 19 19 17 16 17 18 19 19 18 17 18 18 20 18 14 18 12 17 17
12 12 10 10 9 8 7 7 5 4 2 4 3 3 3 2 3 1 3 4 2 4 2 10 10 14 13 8 12 14 12 11 11 7 3 5 6 11 9 11 12 14 12 9 10 10 7 8 7 2 1 2 1 3 4 4 5 2 2 3 2 3 9 9 13 13 15 18 17 17 18 18 18 19 21 21 22 24 24 23 22 22 20 20 20 24 28
12 12 12 11 10 9 8 8 6 6 3 3 4 4 3 4 3 3 2 3 3 1 3 7 10 14 8 9 11 12 14 15 9 4 7 6 8 10 13 12 3 4 0 8 9 11 9 2 2 0 4 3 3 7 7 8 1 4 1 1 2 4 6 6 3 5 10 14 18 17 18 18 19 18 20 23 25 26 24 23 24 24 19 21 25 23 23
12 13 12 12 10 10 8 7 6 8 5 3 3 3 2 3 3 4 3 4 2 3 4 8 11 11 12 12 12 10 14 16 13 6 4 6 9 6 11 3 5 2 3 6 10 7 2 0 0 1 0 6 4 1 1 5 1 3 1 4 2 4 8 5 5 10 12 10 11 12 5 4 9 8 11 18 21 22 19 17 14 17 21 23 23 18 16
14 13 13 12 11 11 10 9 8 7 6 3 3 3 2 0 1 1 3 2 6 5 4 7 8 12 13 13 14 12 17 16 11 10 4 3 2 6 7 5 5 5 3 7 7 2 5 3 5 4 3 2 1 3 3 3 4 3 3 2 3 3 4 3 5 9 8 8 4 4 4 9 12 14 19 18 18 18 18 18 21 21 21 19 18 17 4
14 13 13 13 12 12 11 11 10 10 6 3 3 2 1 1 1 1 3 2 4 6 6 6 10 5 5 10 6 3 4 2 9 13 6 5 3 3 3 7 9 9 9 3 8 7 6 5 3 1 0 4 5 5 6 8 7 8 7 7 5 7 9 10 7 7 4 8 7 5 7 12 13 2 2 8 13 13 16 15 16 18 12 11 1 2 3
15 15 14 14 14 13 13 12 12 12 8 4 2 2 1 0 1 2 3 7 6 6 7 7 10 5 5 7 6 7 7 9 9 4 10 6 7 3 3 2 4 5 7 8 6 6 4 1 2 3 6 7 8 9 11 13 12 10 10 11 9 9 9 11 7 10 12 11 9 11 16 15 1 4 3 10 13 12 15 17 19 20 18 19 17 8 4
16 16 16 15 15 14 14 14 13 12 11 5 4 3 2 1 2 3 3 5 5 8 8 7 3 2 4 6 6 5 4 5 4 3 4 7 8 5 4 4 4 4 7 6 4 1 2 5 7 8 10 9 9 12 16 18 17 15 13 13 12 12 12 10 10 10 10 10 10 14 13 1 2 2 2 2 3 8 11 15 15 17 16 15 15 11 1
18 18 18 17 16 16 15 16 14 14 14 9 5 4 3 4 4 3 3 3 6 5 6 2 4 6 7 8 8 7 6 4 3 2 4 3 6 6 4 3 3 5 3 3 1 1 4 5 6 3 5 6 6 7 15 16 16 16 16 15 13 14 9 8 11 6 14 10 12 18 9 14 12 7 7 8 8 9 9 10 7 4 1 3 2 5 6
20 19 19 19 18 16 17 17 16 16 15 13 7 5 5 6 5 4 2 2 3 3 6 7 7 10 10 9 9 7 6 7 6 4 3 3 2 2 2 5 3 4 5 5 3 6 5 2 1 3 3 4 4 4 2 1 4 6 8 9 11 11 12 7 10 7 10 13 13 13 11 14 7 1 4 9 7 7 5 6 7 1 2 1 3 5 1
15 16 16 17 18 19 19 18 17 17 16 15 8 7 6 6 5 3 3 2 2 4 6 9 1 10 9 9 10 10 7 7 7 4 3 4 3 3 5 3 1 3 3 4 4 3 4 4 3 3 5 3 2 3 3 3 2 2 2 2 2 6 10 11 11 9 8 12 13 12 12 9 1 3 2 2 4 3 6 6 11 1 3 5 4 2 4
18 17 17 17 16 16 15 14 16 19 19 18 11 8 7 8 6 5 3 2 3 6 7 2 6 7 6 4 5 6 7 7 8 5 5 6 8 5 3 2 1 3 7 4 5 3 3 5 3 3 3 4 2 3 0 1 1 1 4 4 3 4 6 7 11 12 11 11 11 14 6 8 3 2 3 3 1 2 2 13 11 4 3 3 2 2 4
21 20 21 20 20 19 20 19 17 15 18 21 13 9 8 9 9 5 3 4 3 4 3 6 9 8 9 6 6 5 5 2 3 0 0 2 4 2 4 3 3 3 5 6 4 5 6 6 7 5 6 2 4 4 4 3 2 3 3 3 3 4 4 8 13 11 12 15 13 10 10 7 6 6 10 3 2 1 7 14 2 3 1 2 3 4 4
21 21 20 21 21 21 21 21 21 20 20 20 12 7 8 10 10 10 6 6 6 5 4 9 9 6 2 5 5 5 4 7 7 4 3 3 2 4 6 1 2 2 7 6 6 7 7 7 3 3 4 4 4 4 2 3 4 2 2 4 2 2 2 5 9 13 13 12 14 13 11 8 7 5 5 7 3 7 10 1 4 4 4 4 4 7 7
21 21 21 20 21 21 21 21 21 21 21 22 14 9 8 10 11 13 11 8 6 8 5 8 9 11 6 7 6 6 5 5 7 6 5 5 4 10 4 2 5 3 5 6 6 5 6 8 7 3 7 6 4 3 2 5 2 4 4 6 7 6 4 5 9 7 8 9 11 10 12 2 6 4 3 4 6 6 1 1 3 5 4 4 5 7 8
20 21 21 22 21 21 21 21 22 21 23 24 18 8 9 10 11 12 11 8 6 8 9 8 7 12 10 10 10 10 11 8 9 7 7 2 7 7 6 6 8 7 7 7 8 8 6 7 8 6 3 3 4 3 6 3 4 8 8 6 7 3 8 8 9 5 10 10 9 5 3 6 7 5 5 4 7 7 7 4 7 8 7 5 4 7 8
22 22 22 22 22 22 22 21 21 21 22 23 20 10 10 8 9 9 10 7 9 11 3 3 8 10 12 12 9 9 10 10 11 6 5 3 7 9 1 4 7 5 4 3 2 1 2 2 1 3 6 5 4 8 4 4 7 1 4 2 6 10 12 8 11 4 9 9 10 8 10 4 6 8 8 8 9 7 6 6 8 7 8 6 6 10 10
22 22 22 22 22 22 21 22 22 21 22 22 18 9 10 7 7 9 9 9 6 3 1 3 4 7 9 11 11 11 11 10 8 9 9 8 7 9 8 4 4 4 1 5 6 5 5 5 6 4 4 6 8 7 5 8 8 4 6 9 9 8 13 10 12 12 14 15 15 13 14 16 14 10 9 12 14 14 8 4 6 8 8 7 9 10 10
21 21 21 22 22 23 21 21 21 21 23 23 15 7 8 8 8 7 3 4 6 8 6 6 6 10 12 15 14 10 11 11 12 12 10 8 9 7 7 9 4 2 2 6 6 6 3 3 3 4 7 5 4 9 9 9 11 8 8 8 8 14 15 10 9 11 12 12 11 14 18 19 16 16 15 13 11 9 9 10 10 10 10 10 9 9 8
22 21 21 22 22 22 22 21 22 21 22 23 19 13 7 5 8 11 9 7 6 8 7 6 15 16 9 12 8 11 14 12 11 13 13 11 11 11 12 12 11 10 9 10 4 2 2 3 3 4 8 6 7 10 8 10 11 10 10 11 9 11 13 14 14 15 14 14 14 16 16 17 16 13 12 13 13 14 14 12 11 12 11 9 7 2 5
23 22 20 22 22 23 22 22 23 22 20 22 19 9 9 8 9 10 8 6 1 2 8 10 7 7 8 9 14 17 13 13 14 14 15 15 15 16 14 8 3 7 7 2 5 7 5 5 5 6 8 7 10 10 12 12 11 9 12 12 13 7 3 6 6 11 13 15 18 19 19 19 19 18 15 14 14 14 15 14 12 10 12 5 4 3 4
22 23 22 23 23 21 21 22 24 24 25 24 16 8 8 7 10 13 10 9 5 5 8 10 4 1 5 16 13 11 13 14 14 15 15 16 17 15 11 9 8 6 6 5 4 5 5 5 7 8 9 6 6 10 8 7 13 12 13 15 14 12 17 14 9 11 13 12 14 13 11 10 12 12 10 11 12 14 14 11 10 9 8 6 5 5 4
21 20 20 22 22 22 20 21 22 24 22 19 13 10 8 8 10 12 12 11 12 7 0 3 3 1 4 4 9 9 12 14 14 14 15 17 18 15 13 11 10 7 7 6 2 5 6 8 9 5 3 3 7 9 10 10 8 8 10 13 12 14 17 12 12 12 11 14 15 13 13 15 14 15 13 12 11 9 10 10 11 11 6 2 4 5 5
21 20 21 21 22 23 23 23 22 23 22 18 3 3 1 6 8 11 14 11 9 4 3 1 1 1 4 1 5 9 11 13 14 15 15 14 17 16 17 17 14 10 7 8 7 7 8 10 7 6 7 6 5 7 7 10 11 12 14 18 17 17 16 14 14 16 17 17 16 14 12 13 15 15 16 11 3 4 7 9 6 1 4 3 5 6 6
21 21 21 21 21 22 23 22 22 23 21 6 5 1 2 3 9 10 15 11 10 5 6 7 5 3 2 3 3 7 9 14 14 16 16 14 15 16 17 14 14 14 9 10 10 9 10 9 9 9 8 9 7 4 6 5 9 12 15 18 19 18 17 15 15 16 16 16 16 16 14 15 14 14 5 4 5 5 6 7 5 4 4 4 4 2 1
22 22 21 21 22 21 23 23 22 22 19 4 4 3 3 4 8 14 20 16 11 7 3 3 7 1 1 2 3 9 13 13 14 15 18 16 14 15 12 11 11 11 11 11 11 13 5 5 7 10 12 13 10 6 6 7 10 10 16 18 18 19 17 17 17 17 17 17 17 17 15 15 15 12 8 8 6 6 5 3 4 4 4 4 2 2 2
21 22 23 22 20 21 21 22 21 21 11 8 9 8 3 1 3 11 19 14 11 5 4 4 4 4 2 2 1 1 10 13 11 11 11 11 12 12 12 12 10 11 10 8 6 3 7 8 10 10 13 12 12 3 4 7 13 15 15 16 17 16 16 16 17 17 17 17 15 13 14 15 14 14 9 4 6 4 4 6 6 5 4 3 3 3 3
21 22 23 23 23 21 21 21 22 16 11 11 17 10 5 7 4 13 16 10 6 2 3 4 4 2 2 3 3 3 6 8 10 11 10 11 11 9 9 7 8 7 8 7 6 6 5 8 11 13 13 7 6 3 5 11 14 13 17 19 17 17 17 15 16 15 16 15 14 12 12 14 7 4 7 6 5 5 6 6 6 5 4 3 3 3 3
19 19 21 23 24 23 20 20 22 22 14 5 2 9 11 5 6 17 13 7 2 1 3 4 3 4 2 3 1 4 12 10 8 11 7 9 8 9 6 8 9 5 7 9 4 2 4 7 11 10 3 8 8 4 8 11 12 17 19 18 18 16 14 15 15 15 15 14 11 7 1 5 7 4 5 5 5 5 6 5 5 5 4 4 4 4 4
18 18 19 21 23 23 18 15 9 9 6 5 5 7 7 15 8 18 19 10 6 4 3 3 2 4 5 3 6 6 9 8 8 11 8 7 8 7 6 4 6 8 5 6 3 8 10 9 7 6 9 8 8 8 7 9 14 17 18 18 17 16 13 15 15 16 13 2 3 2 2 3 5 4 5 5 6 6 6 4 3 4 4 4 5 5 4
19 18 17 17 19 17 10 9 7 6 7 7 4 6 16 18 17 13 13 4 2 4 5 4 5 8 7 7 9 4 8 7 7 7 6 4 2 6 5 5 5 6 4 6 6 8 11 9 6 8 7 8 11 9 12 15 17 18 18 17 15 15 16 19 18 9 5 4 4 4 3 2 5 5 4 5 6 4 6 4 4 2 2 3 5 5 4
17 15 13 12 6 3 7 6 4 8 5 4 6 11 18 14 4 4 3 3 2 0 3 4 7 9 11 9 2 3 8 8 9 6 7 5 5 3 5 5 6 3 4 5 7 10 11 7 7 10 9 13 14 15 17 17 17 18 18 18 17 16 14 15 7 6 5 4 4 2 2 2 2 2 4 5 5 5 5 4 6 5 5 5 3 2 3
13 14 6 2 3 5 3 7 5 7 13 17 14 7 5 6 3 4 3 3 2 3 3 3 8 5 3 6 6 8 8 7 8 6 4 5 5 3 3 4 5 6 7 7 9 6 3 5 8 11 14 13 15 14 14 13 16 16 16 15 15 14 11 1 7 6 3 1 4 3 1 2 4 4 5 5 5 5 5 3 3 3 2 2 2 3 2
8 4 5 3 4 5 5 1 10 19 11 7 4 4 5 2 4 4 4 2 2 4 4 7 8 7 8 8 3 6 5 9 9 7 6 8 6 5 5 6 6 5 5 3 5 11 7 8 8 9 13 12 12 18 19 17 14 13 12 4 3 3 3 3 3 5 8 8 4 1 3 6 8 8 5 4 4 4 3 4 3 2 3 2 2 2 3
2 4 4 3 6 5 3 7 20 12 4 5 4 3 4 3 5 3 4 3 3 2 4 7 8 9 15 15 13 10 5 8 10 11 9 7 3 4 4 2 3 4 6 9 6 6 6 6 7 6 12 10 13 20 17 11 14 11 2 2 4 5 5 5 3 4 6 7 6 5 5 5 4 3 5 5 5 6 4 3 3 2 2 3 3 3 5
3 1 1 4 1 2 2 7 3 1 4 4 1 2 2 4 3 1 3 6 6 3 4 5 6 9 11 11 9 7 5 3 0 2 4 5 3 4 3 4 4 3 5 8 3 3 3 2 6 12 12 12 15 17 12 10 9 3 4 3 4 3 5 6 6 4 4 6 5 5 5 6 7 5 5 4 4 3 3 3 4 4 4 4 4 5 4
3 2 0 2 2 1 3 1 1 2 1 2 4 4 5 2 2 1 3 6 6 3 3 6 10 14 12 13 7 6 2 1 2 2 3 5 6 5 5 1 2 4 4 2 4 2 3 5 6 7 10 16 16 9 3 4 3 5 4 5 4 4 4 5 6 5 4 5 5 5 5 5 5 5 4 4 3 4 4 4 4 5 4 3 2 3 4
2 6 2 0 1 2 2 4 4 2 4 3 3 3 3 3 5 5 3 2 2 1 2 2 2 3 3 2 1 2 2 3 3 2 3 5 3 1 3 3 2 4 4 3 3 3 6 7 9 11 11 12 7 6 3 3 6 6 6 4 5 4 5 5 6 6 5 5 5 5 5 5 3 3 3 3 3 2 3 4 4 4 4 3 3 4 5
3 4 4 2 3 4 3 8 3 2 4 3 6 8 6 4 5 4 3 5 4 4 5 8 7 9 8 6 6 3 2 1 2 2 1 1 3 4 3 5 6 0 3 1 3 6 6 4 7 9 8 0 2 2 5 6 6 6 6 5 5 6 7 7 7 7 5 4 4 4 3 3 3 2 3 2 4 5 4 3 3 3 3 3 4 5 5
3 1 2 2 3 3 4 4 3 4 8 6 5 6 6 9 8 8 6 3 4 7 9 8 9 9 6 2 3 0 2 3 3 4 4 4 2 3 4 3 3 2 4 6 4 2 1 5 7 9 9 7 4 5 3 4 6 9 8 7 6 6 6 6 6 5 5 4 3 3 2 1 2 2 2 3 3 3 3 4 2 2 3 3 4 5 6
6 4 4 3 5 3 4 3 2 4 3 5 6 7 7 7 4 5 2 3 4 6 9 9 8 7 5 2 5 5 3 3 4 4 3 2 4 5 2 1 1 3 3 4 5 8 9 9 8 12 11 7 6 7 6 6 5 6 10 9 6 5 4 5 4 4 4 4 3 3 2 1 1 1 2 3 2 2 3 4 3 3 3 4 5 5 4
3 2 2 1 4 3 2 7 7 3 1 3 4 6 7 3 1 2 2 3 5 5 5 3 4 4 7 5 2 1 0 2 4 2 3 3 5 1 2 3 4 4 5 7 6 6 8 10 12 4 5 7 9 8 8 8 6 5 5 6 7 6 5 5 5 4 4 4 3 2 1 2 1 1 2 3 4 3 3 4 4 4 4 5 5 4 5
4 1 2 4 4 3 6 5 1 1 1 1 1 2 1 1 3 2 2 2 1 5 8 7 4 3 2 1 1 4 3 1 3 3 3 2 3 2 2 1 3 3 3 6 10 7 10 11 3 6 3 5 12 14 9 7 6 7 7 7 7 6 6 5 4 4 4 3 3 2 2 1 1 2 2 3 4 5 2 3 3 3 4 4 4 5 6
1 3 5 3 1 1 2 3 1 7 2 1 1 1 1 3 6 3 2 1 4 6 3 6 4 6 2 3 3 3 2 3 4 4 4 2 4 5 5 5 5 6 5 5 7 11 5 2 3 4 5 6 7 8 6 5 5 7 6 6 5 5 5 4 4 4 3 2 2 2 2 2 1 2 2 2 4 5 4 3 3 4 4 5 5 6 6
2 0 2 2 1 2 1 0 1 3 1 1 1 1 1 2 2 2 1 2 1 5 4 6 3 3 2 3 2 3 3 2 3 1 3 5 4 2 2 2 4 5 6 9 9 1 3 3 5 6 4 6 6 5 8 6 5 6 5 5 5 4 3 4 4 3 3 3 3 2 1 1 1 1 1 3 3 4 5 7 6 6 7 6 5 6 7
1 0 1 1 3 2 5 3 5 5 4 5 5 3 3 2 0 1 0 1 5 5 5 4 4 3 4 2 2 3 3 3 3 5 5 5 2 3 5 8 8 7 2 3 3 4 2 3 4 5 7 6 7 6 6 7 7 7 6 6 5 4 4 3 3 3 3 2 2 2 2 2 1 1 2 2 3 4 5 8 8 6 6 6 5 7 7
3 3 3 1 1 1 2 1 2 1 1 1 2 2 3 3 2 2 1 2 5 8 7 2 3 3 3 6 4 1 2 2 3 3 3 4 3 5 7 8 4 1 2 1 2 2 2 2 2 3 4 6 7 8 7 7 9 8 8 7 5 4 3 4 3 3 2 1 2 2 2 1 0 1 1 2 2 3 4 6 5 3 3 3 6 7 7
Wind_Direction
143 143 152 153 143 131 125 87 39 38 15 184 164 191 186 215 227 41 192 177 169 165 212 200 200 212 226 94 275 161 212 184 168 169 172 163 149 204 224 219 233 244 252 254 254 238 252 235 245 244 237 256 273 73 88 94 73 350 326 284 183 69 272 260 263 269 270 268 265 263 239 233 261 260 265 252 247 236 252 261 294 267 272 267 260 256 251
157 155 163 172 157 159 161 133 68 52 38 25 207 196 214 196 153 146 114 205 198 184 198 211 213 218 208 206 226 200 229 206 180 204 192 181 191 215 224 246 234 251 239 242 246 239 257 238 241 249 248 253 82 27 50 310 139 243 290 280 33 277 219 274 310 298 283 267 250 243 96 329 266 269 264 269 271 261 271 267 244 266 206 251 266 265 272
160 179 187 191 187 161 136 77 59 38 23 27 266 208 195 170 119 53 175 164 212 208 210 218 209 215 224 220 225 222 215 221 221 204 212 221 227 230 233 242 257 235 243 256 254 253 253 268 291 285 282 268 85 68 18 11 65 39 44 70 51 276 287 330 276 262 263 255 246 254 267 345 15 339 300 278 259 263 274 263 263 264 242 240 249 267 278
183 194 202 210 214 153 117 172 164 23 21 338 248 261 177 189 184 177 182 218 245 265 290 281 229 220 220 232 231 234 234 201 149 208 236 230 236 237 250 44 217 242 241 241 240 239 223 226 237 229 226 200 66 102 92 58 82 74 118 72 64 267 221 231 241 251 256 262 286 307 310 292 273 273 258 259 256 263 265 278 272 259 279 270 271 280 283
210 217 214 212 216 192 188 231 277 7 353 357 306 266 252 303 217 160 189 121 245 239 232 229 229 227 220 230 199 234 232 236 205 182 232 221 234 238 233 231 227 222 227 236 249 249 248 228 244 245 255 267 265 132 137 102 78 131 120 180 152 249 269 256 254 251 259 265 269 274 277 277 276 275 269 268 263 250 247 244 254 265 286 268 246 255 262
236 223 218 213 207 206 213 230 158 203 195 295 265 232 205 210 213 184 139 225 184 208 219 215 224 236 225 234 228 242 234 221 230 193 229 29 300 224 239 243 236 242 240 239 245 244 247 245 246 250 257 261 257 256 127 106 128 180 95 154 239 282 272 272 275 273 272 274 275 277 277 275 279 277 276 272 269 266 258 253 260 268 257 267 282 287 280
229 222 225 227 223 211 222 223 218 179 252 288 268 233 219 328 348 38 350 193 217 216 49 195 206 230 229 242 236 239 233 234 233 233 189 205 221 225 236 232 230 233 235 233 238 235 240 236 234 238 31 70 59 268 273 125 97 113 114 186 216 258 261 262 260 269 268 272 273 275 276 279 276 272 269 267 265 262 261 266 271 267 267 273 276 274 274
223 223 224 227 226 227 220 216 200 164 179 273 253 258 231 187 209 166 53 14 43 355 183 200 204 226 214 231 230 239 237 238 218 108 196 219 224 217 237 236 110 92 127 219 225 231 256 308 159 360 98 295 288 274 268 276 78 83 312 341 260 252 262 300 8 299 278 277 279 280 276 275 275 279 277 270 265 266 269 276 274 278 278 271 272 273 273
225 224 222 223 225 219 221 225 222 169 217 252 246 237 309 330 6 335 160 195 172 96 197 201 207 220 223 231 233 242 233 239 235 204 48 239 232 223 234 178 112 96 176 229 233 243 92 85 248 83 200 259 337 7 295 90 203 316 227 260 269 256 274 285 277 275 270 262 269 278 321 311 279 270 262 259 261 267 267 265 272 274 277 280 283 279 276
224 226 225 222 221 222 219 225 198 188 213 265 275 234 133 91 330 252 300 228 160 150 176 207 205 223 225 226 228 231 234 239 228 229 145 65 310 262 231 176 203 215 190 224 244 80 88 86 85 89 77 19 234 281 290 283 272 266 237 238 234 239 258 260 270 269 253 262 279 298 349 311 285 247 239 249 259 258 265 268 271 268 277 280 276 275 324
224 225 225 222 222 219 219 220 218 185 203 220 235 264 223 218 188 196 266 209 191 177 164 197 212 232 223 213 224 74 112 161 192 219 196 131 139 57 189 195 221 233 243 107 76 88 75 70 73 3 243 245 252 255 258 252 236 232 244 259 246 237 244 258 262 262 269 265 263 289 289 257 250 241 220 252 261 268 267 267 270 274 270 279 325 282 151
224 224 224 225 223 224 220 219 218 195 207 229 268 278 315 61 295 288 217 216 215 169 192 202 214 204 178 187 202 197 188 201 213 273 236 166 162 138 151 142 164 232 95 106 97 94 96 92 245 261 253 256 254 252 250 253 249 233 223 232 249 252 253 256 255 262 269 277 280 270 250 247 11 126 226 256 266 268 265 267 269 271 273 275 272 260 184
223 220 221 221 222 222 221 219 222 211 205 226 231 237 154 302 257 230 239 241 223 184 193 212 88 138 158 149 167 176 150 82 78 53 45 161 176 164 202 184 203 130 115 109 122 30 317 290 279 263 257 243 235 236 239 240 244 236 231 224 232 247 247 257 254 254 271 261 249 250 251 202 255 243 128 29 275 250 266 266 258 261 262 267 272 289 70
220 220 219 218 218 216 216 217 215 217 212 214 223 229 183 191 193 218 216 228 237 208 195 139 154 172 167 175 170 134 127 156 121 68 157 184 184 185 184 161 82 104 121 122 127 221 267 248 259 245 245 226 242 245 245 243 242 242 237 232 229 239 251 246 263 239 257 251 250 252 293 285 263 251 219 198 234 254 258 284 294 18 346 296 294 106 106
225 222 221 220 220 218 215 214 211 212 215 206 228 224 203 199 217 227 289 297 228 191 187 216 200 184 180 180 161 157 177 178 172 202 130 38 116 274 109 93 112 140 146 158 203 210 206 253 262 252 263 211 228 240 12 232 235 237 255 252 240 231 231 243 257 247 241 259 264 267 263 262 274 291 28 24 36 12 360 314 282 262 2 21 129 118 81
233 235 232 229 225 218 216 216 213 209 210 207 219 224 219 200 204 234 238 247 245 237 236 216 266 168 182 188 189 192 197 188 202 167 149 192 189 137 79 91 79 170 183 195 224 214 222 189 217 224 240 222 316 69 278 111 306 142 55 258 254 250 244 241 241 258 256 252 257 256 260 268 69 250 22 59 57 32 16 285 276 79 113 100 100 41 351
238 236 233 231 229 229 227 227 226 214 205 204 211 215 226 191 194 199 196 225 254 225 22 142 164 174 162 161 177 212 218 209 188 183 209 195 178 150 93 100 334 178 191 178 205 153 209 210 228 245 281 104 97 214 354 303 220 198 125 107 120 198 219 214 237 243 239 250 249 254 251 262 107 163 339 88 53 14 330 284 281 133 166 85 347 314 288
231 231 228 227 227 226 225 226 225 227 218 203 207 214 216 192 189 187 208 224 216 270 198 182 172 178 187 180 182 165 131 153 173 105 195 95 96 174 161 135 141 215 214 194 203 199 216 214 208 225 238 184 140 325 235 111 162 223 200 225 184 187 222 217 233 235 244 242 254 261 261 258 280 288 296 174 123 206 265 256 330 182 191 197 244 265 274
232 230 229 227 226 225 224 223 224 219 217 212 208 222 227 195 184 198 214 214 225 234 197 181 208 204 62 62 128 150 168 185 177 172 169 156 191 128 126 209 177 164 190 188 224 215 211 228 226 229 238 228 128 204 261 193 226 307 232 245 222 217 187 255 241 242 246 248 254 253 270 262 233 252 189 152 181 242 251 321 120 187 234 253 233 249 260
234 232 231 231 229 227 225 224 221 221 221 215 201 208 210 193 185 192 198 209 226 238 227 180 202 210 206 174 169 159 163 179 204 198 194 178 108 116 147 144 199 121 196 165 211 214 205 221 216 217 232 230 239 139 285 236 272 189 235 227 248 248 241 231 235 241 244 246 255 259 261 35 93 112 57 219 213 255 316 164 203 188 221 241 248 233 237
236 237 235 233 232 230 228 226 224 223 222 221 210 198 214 203 185 195 205 220 226 247 248 211 203 216 212 215 203 181 172 181 187 205 219 157 170 164 184 209 176 160 185 178 184 209 191 218 211 210 233 227 232 109 218 221 245 236 220 241 260 263 267 257 257 239 261 253 244 230 267 279 175 178 234 246 240 264 284 293 298 293 297 291 290 267 252
235 235 233 234 235 234 233 230 228 225 221 221 215 204 216 191 184 190 204 204 226 233 256 305 210 220 226 227 221 214 211 210 210 211 228 175 185 203 212 81 154 157 188 156 173 179 198 175 226 171 210 213 219 229 218 206 236 169 3 189 248 193 224 226 257 238 263 265 271 279 286 317 168 213 245 261 273 275 271 271 268 278 279 275 268 276 277
240 239 237 235 233 233 233 232 230 227 225 222 216 202 220 169 181 190 184 208 233 298 68 237 232 242 244 241 230 226 229 231 242 234 226 227 215 217 224 175 196 174 191 199 194 196 190 164 206 198 219 224 205 228 206 217 252 209 230 199 232 231 247 241 252 260 261 267 272 282 279 270 263 240 236 252 262 268 270 240 257 252 258 264 272 277 277
245 243 242 239 236 232 231 231 230 229 225 223 218 196 216 191 176 143 172 216 214 237 238 205 220 224 210 216 211 212 222 222 219 222 223 221 233 235 226 230 200 136 207 211 213 243 228 165 219 216 228 216 192 219 223 230 231 231 248 254 237 246 248 251 250 262 267 260 259 253 257 263 262 261 259 259 252 248 256 265 264 272 272 272 270 276 280
243 242 241 243 244 239 234 233 233 230 231 228 221 214 210 198 171 168 161 190 207 210 238 200 211 225 202 205 200 210 215 213 208 215 217 218 225 227 229 219 206 207 209 200 136 106 127 183 201 200 232 217 214 240 234 241 250 215 231 238 248 252 244 249 240 246 243 256 258 261 260 262 265 267 272 267 265 266 271 273 274 277 279 275 269 275 270
242 238 239 244 243 240 237 233 234 233 230 233 230 205 196 202 173 173 183 213 205 198 227 239 251 176 158 180 203 213 203 198 206 209 213 218 221 227 237 249 237 226 251 258 179 192 193 214 205 218 226 238 208 242 240 235 255 240 243 241 237 262 249 237 206 245 254 260 262 262 266 269 268 265 261 263 269 275 272 272 276 281 286 259 175 198 248
245 246 242 241 241 242 245 245 241 237 232 228 227 210 200 192 172 181 186 180 176 265 219 238 206 61 200 203 210 209 204 198 196 205 211 216 222 223 223 230 232 208 189 199 202 213 223 223 208 222 216 229 221 246 252 244 244 241 243 248 251 255 252 244 243 254 251 243 244 247 258 265 269 261 256 260 271 278 279 272 269 278 267 233 201 188 192
244 242 239 242 245 242 237 239 242 242 238 238 236 227 202 196 195 198 191 183 191 230 164 221 229 188 77 271 237 214 200 204 198 199 207 215 217 218 221 221 225 218 210 186 156 200 210 221 226 228 230 235 237 236 222 243 250 255 249 246 233 235 242 235 239 234 242 239 240 243 252 263 267 277 279 274 275 268 263 261 269 277 273 198 209 209 192
244 241 241 240 236 239 241 238 236 240 237 236 209 153 160 215 208 206 206 200 204 249 261 246 45 235 218 226 161 194 200 194 198 201 204 211 212 215 220 221 220 212 194 211 213 216 213 226 216 200 221 188 222 242 228 226 224 228 230 233 235 236 243 243 246 251 253 253 260 260 259 264 272 276 282 286 258 216 240 259 265 222 164 186 206 226 230
249 246 244 242 242 240 241 238 237 242 240 219 95 113 163 239 215 210 206 197 193 196 224 217 228 229 89 100 186 192 194 201 204 204 204 205 212 217 222 221 225 221 195 204 205 220 211 223 223 224 223 173 207 213 226 212 228 231 236 240 243 246 242 242 242 243 250 250 256 258 259 262 268 280 280 149 162 197 230 249 226 173 157 157 196 175 77
252 249 245 240 240 239 239 241 236 233 232 190 134 162 177 232 206 194 199 199 186 194 216 205 229 88 291 218 164 189 181 185 198 208 213 212 211 214 216 215 224 218 218 213 211 220 206 219 211 226 229 213 219 226 199 208 231 237 234 234 241 247 246 245 243 241 246 252 255 257 260 264 268 273 250 237 172 174 181 124 84 83 107 128 123 119 122
252 254 252 248 243 239 239 239 239 238 226 160 189 197 194 256 39 157 186 187 165 175 165 209 219 194 209 216 183 246 181 180 187 202 212 210 218 214 216 206 217 213 219 219 216 225 217 222 224 230 230 217 220 232 210 213 229 234 236 238 239 246 247 247 246 245 245 246 251 254 254 258 256 252 265 81 96 98 120 114 111 108 102 94 86 86 84
246 247 249 248 245 244 244 243 239 233 225 215 220 250 312 313 279 169 172 149 147 175 160 216 197 167 193 211 100 295 175 173 197 197 212 201 214 197 213 199 216 221 203 213 202 222 206 216 227 237 232 216 222 219 209 220 228 232 239 243 245 244 246 248 250 248 247 243 235 234 237 246 241 81 83 99 96 109 118 120 116 109 103 105 126 144 142
250 251 253 251 251 245 240 244 248 246 245 243 219 229 221 214 207 167 149 141 132 171 183 190 182 183 201 102 92 170 161 172 192 189 209 194 199 193 188 177 198 209 195 202 201 209 228 226 225 233 216 217 213 226 235 229 224 236 242 245 248 250 253 255 253 251 246 243 234 246 253 85 102 128 115 123 126 104 102 98 118 119 142 157 190 185 151
251 251 250 252 253 253 248 245 246 233 210 198 228 239 179 169 177 169 157 162 139 210 162 233 174 191 177 167 219 189 174 180 186 186 194 183 165 183 172 155 183 199 209 136 218 217 224 221 216 231 223 214 213 232 234 232 222 230 240 246 247 251 254 254 251 247 247 145 108 129 112 142 144 180 205 175 148 156 141 143 158 156 175 185 177 160 161
254 249 252 252 255 253 250 239 227 222 217 210 206 159 161 163 166 176 184 194 149 171 183 200 174 200 183 195 211 187 140 198 177 159 175 119 156 193 191 174 211 202 141 180 217 207 230 215 215 234 214 217 225 219 230 228 234 237 235 237 237 235 239 242 248 239 88 74 81 88 109 158 204 219 165 161 143 146 162 154 160 168 193 179 182 174 163
260 253 249 252 246 236 233 226 182 200 219 143 129 147 167 159 145 154 179 229 269 27 206 180 196 201 194 211 161 165 151 182 165 151 156 155 177 156 172 191 211 153 172 213 206 218 227 198 219 237 222 228 236 231 234 239 240 244 246 246 247 249 251 254 255 122 110 86 81 133 164 188 204 205 174 175 170 157 156 187 184 175 187 193 174 163 209
255 262 238 184 155 208 223 214 200 165 125 127 134 137 170 155 194 169 177 219 219 164 233 189 219 193 187 197 217 168 157 190 139 149 155 177 149 209 174 214 208 193 218 213 222 188 228 213 220 225 239 236 246 251 244 236 239 242 247 252 252 254 258 227 125 136 126 257 264 202 170 252 228 212 186 185 162 170 183 161 116 109 129 160 192 200 222
251 244 232 200 187 206 225 198 134 141 150 149 141 183 202 167 163 198 181 169 169 217 199 206 206 167 176 197 178 147 195 163 164 167 170 184 161 200 164 191 203 188 239 213 220 145 224 208 218 226 242 238 240 245 242 238 241 244 246 282 342 48 80 104 137 176 209 234 262 77 175 208 212 212 182 171 148 150 132 129 150 162 160 176 198 229 244
158 219 194 181 219 211 82 152 151 133 136 162 181 191 219 178 180 211 138 168 209 226 176 214 203 199 185 191 175 194 181 160 167 187 184 178 172 185 178 160 216 155 213 203 205 139 205 218 200 215 240 232 237 245 243 229 239 245 95 90 80 78 81 101 93 59 86 86 93 89 64 61 36 91 147 149 144 149 144 132 144 150 160 187 222 234 242
205 191 174 217 190 163 173 153 150 144 155 160 175 223 157 209 202 157 160 202 201 199 176 203 171 201 205 202 169 177 162 189 319 116 151 185 144 97 143 183 187 178 214 203 186 133 193 222 220 222 230 227 234 243 243 234 234 101 74 85 90 93 97 94 85 80 97 98 92 90 72 68 78 72 72 84 100 115 135 153 176 182 193 210 216 237 251
201 197 143 80 69 69 65 68 181 144 218 195 196 223 194 205 94 194 200 192 202 160 238 188 194 196 195 185 178 155 155 106 113 171 138 197 178 165 189 162 211 186 210 170 106 171 171 220 216 227 228 237 242 247 230 203 91 121 94 91 94 105 108 103 101 67 69 98 103 105 107 99 98 107 117 133 153 159 176 183 197 198 201 213 231 255 260
131 76 31 131 143 184 186 198 188 187 198 174 138 205 165 157 202 180 210 207 317 197 165 73 338 93 14 113 48 25 148 150 161 179 192 194 114 131 176 193 148 211 185 102 157 173 201 220 226 228 231 239 248 220 164 126 114 102 107 105 104 108 110 111 102 104 89 88 99 107 112 120 118 116 121 124 133 177 213 209 210 209 209 206 222 242 249
162 148 159 193 197 221 171 235 159 99 210 175 187 207 173 193 200 179 204 188 156 164 169 155 172 150 181 182 178 135 94 140 146 90 281 172 133 186 169 205 200 36 55 161 186 207 214 226 231 239 242 215 34 131 137 137 132 117 108 111 109 113 115 114 117 110 109 97 86 90 99 108 133 142 129 163 180 198 217 221 217 214 225 217 223 240 241
131 190 158 196 211 204 147 221 133 187 212 203 199 208 179 205 193 181 197 133 147 169 160 180 169 186 170 108 52 14 131 159 139 161 204 147 202 203 174 210 128 165 177 203 190 226 234 248 239 242 242 233 178 139 144 135 148 142 139 130 140 137 138 139 139 136 126 131 125 135 123 143 128 192 184 198 203 206 209 240 230 228 238 233 237 243 254
194 182 175 186 219 207 194 236 140 197 211 179 203 208 207 210 174 179 136 128 162 150 167 177 179 166 123 137 154 175 128 151 149 204 154 165 172 210 147 40 112 167 207 202 199 211 216 226 232 239 235 224 148 146 134 133 107 110 129 144 149 132 116 112 113 126 130 136 144 137 144 144 201 231 246 249 234 221 233 249 251 238 248 251 252 254 259
198 195 183 241 240 212 176 225 213 219 180 196 200 192 202 195 143 137 139 169 180 168 142 135 147 174 153 161 120 42 157 172 169 185 115 186 191 122 104 149 205 192 188 213 214 224 227 227 234 223 106 115 114 121 121 118 130 132 105 103 119 130 132 130 133 138 132 129 127 142 152 179 214 247 268 273 266 247 251 246 249 247 245 245 258 259 263
211 168 143 202 216 176 203 223 90 66 12 338 1 10 17 39 123 203 226 212 159 131 144 138 129 93 82 345 77 184 136 183 165 225 161 205 57 65 181 194 223 220 214 218 225 210 227 234 198 127 155 117 132 137 138 137 132 123 124 132 136 138 145 145 136 131 131 136 150 160 180 212 217 239 250 275 285 283 261 256 253 250 247 254 249 251 251
152 162 199 214 270 287 303 2 159 213 173 75 334 322 172 154 202 162 110 201 161 157 154 142 156 122 169 126 158 157 203 194 166 197 116 191 181 193 169 212 180 220 222 209 227 227 232 78 84 94 104 127 106 95 115 118 120 125 123 128 131 132 133 127 134 132 135 148 161 167 193 204 205 233 243 271 285 294 310 311 292 281 267 261 265 266 269
147 214 45 117 199 212 167 301 255 250 118 123 124 243 267 244 153 79 171 121 103 98 88 62 53 79 130 112 167 179 211 173 192 135 130 196 191 206 158 235 215 210 214 207 219 130 110 155 115 113 112 108 119 114 125 125 123 117 111 106 104 104 121 137 145 152 165 168 179 179 152 131 249 252 257 273 295 314 312 298 293 286 284 273 263 259 257
335 285 255 18 244 257 126 184 203 211 193 203 187 191 167 222 188 122 75 145 143 134 142 167 169 131 154 145 171 181 219 144 167 199 185 197 159 174 207 222 219 218 213 34 31 67 115 115 150 132 136 139 138 131 126 134 137 133 128 124 130 127 135 134 146 147 179 169 171 184 205 202 222 287 318 333 310 312 307 297 282 266 261 264 246 240 245
154 182 202 173 112 328 313 345 344 315 319 360 127 129 152 190 144 143 184 158 164 171 180 137 120 160 167 193 191 118 57 70 203 139 180 228 165 191 211 221 226 50 43 100 76 67 75 73 88 118 133 138 142 141 133 111 103 96 102 115 128 144 148 153 153 158 145 135 167 198 239 252 308 344 340 325 319 310 287 280 289 284 260 250 262 250 238